Terug naar catalogus

FENGYUN 1C DEB

ActiefSSO
NORAD 31456·DEBRIS·🇨🇳 China

Gelanceerd May 10, 1999 vanaf Taiyuan Satellite Launch Center

Loading…

Volgende Passages (komende 24 uur)

TLE

VersSource: Space-Track

Epoch: Sep 14, 2026, 13:31 UTC

1 31456U 99025BUU 26257.56332941  .00001738  00000-0  51062-3 0  9995
2 31456  98.5877   6.8876 0067088 204.6854 155.1121 14.43773890 14375

Volg FENGYUN 1C DEB in realtime met AllMySat

Download on the App Store